RH
11 12 14 18 22 25 28 29 29 29 27 25 23 21 19 17 15 14 13 12 12 13 17 27 43 64 83 94 99 100 100 100 100 100 100 100 100 100 97 95 92 88 82 76 73 73 79 89 95 97 96 92 86 83 83 85 85 85 81 73 69 67 65 64 57 48 53 66 71 79 95 102 100 101 98 91 85 70 49 42 51 64 70 68 71
13 13 14 19 25 29 33 35 35 35 35 33 31 29 26 24 21 18 16 14 13 13 12 12 15 25 41 59 76 88 96 100 100 100 101 100 100 100 100 100 100 100 99 95 89 80 72 73 82 92 97 95 90 85 83 85 87 89 89 86 80 75 70 67 65 60 57 61 63 61 69 85 95 101 103 96 87 79 68 54 49 55 64 71 76
14 14 15 18 24 28 32 36 38 39 38 37 37 35 32 30 27 24 21 19 17 15 13 13 12 11 14 21 34 49 66 81 91 97 100 101 101 100 100 101 100 100 101 101 101 100 94 86 84 88 94 97 96 93 89 87 88 89 91 92 90 85 80 76 71 67 64 65 72 74 65 62 71 85 99 102 96 94 93 82 67 55 53 60 69
16 16 16 17 21 25 28 32 35 37 38 38 38 36 35 33 31 29 27 24 22 20 17 15 14 12 12 11 13 17 26 39 56 71 84 92 97 99 102 102 101 100 100 100 100 101 102 102 99 97 95 93 94 98 99 95 93 91 91 92 94 93 90 87 82 77 74 70 71 79 76 68 67 72 85 99 101 98 100 100 89 71 58 57 62
19 17 17 18 19 22 24 27 30 33 35 36 36 36 35 33 32 31 30 28 26 24 21 18 16 14 13 13 12 11 12 14 20 30 44 60 72 82 90 96 99 101 101 100 101 101 101 100 101 102 101 96 92 94 99 102 100 97 95 93 93 94 94 96 93 87 83 78 73 75 79 83 88 84 81 93 102 100 99 101 101 93 82 72 64
23 20 19 19 19 21 23 25 27 29 31 32 32 33 34 33 34 34 34 32 29 27 25 22 20 18 16 16 14 13 13 12 12 13 16 23 33 44 56 66 76 85 92 95 97 99 100 101 100 101 102 100 96 93 93 97 100 100 100 97 96 96 94 96 98 96 91 85 80 79 78 82 94 97 89 90 99 102 101 100 100 100 99 93 78
31 26 23 21 21 22 23 24 26 27 28 29 29 31 33 34 35 37 37 35 32 30 29 27 26 23 21 19 18 17 17 16 15 14 13 12 13 16 22 30 38 47 58 69 77 81 85 90 96 100 101 101 100 97 93 90 90 93 97 99 98 98 97 96 97 97 95 91 86 85 84 83 91 99 98 94 93 96 100 102 100 97 100 100 90
41 34 29 26 24 24 24 25 27 27 27 29 30 32 34 35 36 37 37 37 35 34 33 32 31 29 27 26 24 23 22 21 20 19 17 16 14 12 12 12 15 19 25 33 43 52 59 65 74 85 95 99 100 101 98 93 88 84 85 89 93 96 97 97 98 97 96 95 91 87 86 87 90 96 100 99 94 88 91 97 99 99 101 101 96
53 45 38 33 29 26 26 26 28 29 30 31 32 33 35 37 38 38 39 40 40 38 36 35 34 33 33 32 31 29 27 25 24 23 21 19 17 16 14 12 11 11 12 14 18 24 32 39 45 54 66 80 92 98 99 99 97 91 85 82 81 84 89 92 96 97 97 98 97 93 89 87 88 92 95 97 95 91 94 99 101 101 102 102 100
64 57 48 42 36 31 29 29 29 32 34 34 35 36 37 39 40 41 42 43 43 43 41 39 37 35 35 36 35 34 32 29 28 26 24 22 19 17 15 14 13 12 11 11 11 13 15 17 21 25 29 42 63 81 90 93 96 98 96 92 85 77 75 77 82 89 94 96 97 98 96 90 85 87 90 94 97 99 102 104 102 100 101 101 101
76 70 61 53 44 37 33 33 33 34 36 36 36 38 38 40 41 43 45 47 48 48 46 43 42 40 38 38 38 38 36 34 31 27 23 21 19 18 17 16 15 15 14 13 13 13 13 12 13 14 15 20 34 54 71 79 84 90 94 97 96 89 79 70 66 70 79 88 93 96 99 96 90 85 85 89 96 102 104 102 100 100 101 101 101
87 81 75 64 53 45 39 37 38 36 36 36 36 37 38 40 44 46 49 52 52 51 49 47 46 45 44 43 43 42 40 35 30 25 22 21 22 22 23 22 22 21 20 19 17 15 15 14 13 13 14 15 20 31 46 58 67 75 82 87 92 94 92 83 71 61 59 67 79 88 93 95 95 93 90 87 90 97 102 102 101 100 100 101 102
96 91 85 74 62 53 46 42 41 39 38 37 36 37 40 43 47 49 51 53 53 51 51 50 50 52 52 51 47 42 37 31 27 26 26 29 32 34 33 31 29 27 25 24 22 20 17 16 14 14 13 14 14 17 25 35 44 53 64 72 78 83 88 90 85 75 62 54 57 68 79 86 91 95 98 96 94 97 100 101 102 102 101 100 101
100 98 93 84 72 62 54 49 46 43 41 40 38 40 44 47 51 54 55 56 55 54 55 56 58 60 57 51 44 37 31 29 32 36 40 42 43 42 39 35 31 28 26 24 22 21 20 18 17 15 14 13 14 13 13 17 24 32 41 51 60 67 73 78 82 83 78 67 53 49 56 68 77 86 95 101 102 100 99 99 100 101 102 102 100
101 101 98 92 82 73 64 57 53 49 46 43 42 43 45 48 54 59 60 60 60 61 62 63 64 63 57 47 38 32 34 41 48 52 54 52 49 44 38 33 29 26 24 23 23 22 22 22 20 18 17 15 15 15 13 12 13 17 22 30 39 48 56 62 67 72 77 77 68 54 45 45 52 63 78 92 101 102 100 99 99 101 103 102 101
103 103 101 97 90 83 74 66 60 55 51 49 47 47 48 52 59 65 66 67 69 70 70 69 68 65 57 45 36 35 44 55 60 61 58 53 47 42 37 33 30 27 26 25 26 26 26 26 25 23 22 20 19 18 18 16 14 13 13 16 21 29 37 44 51 56 61 68 71 67 57 46 40 40 48 65 84 98 102 101 99 100 102 101 100
102 103 102 100 97 92 84 74 67 60 56 54 52 51 52 56 64 71 72 72 74 73 71 70 68 65 60 48 39 41 54 64 63 58 53 48 43 40 37 36 34 32 31 30 30 30 29 29 28 26 25 24 24 23 22 21 19 16 14 13 13 15 20 25 31 36 42 50 57 62 63 59 51 40 34 38 53 75 94 104 102 99 100 101 99
100 103 105 104 102 100 94 83 73 66 62 59 56 55 57 59 65 72 74 74 74 72 68 64 61 61 60 53 45 47 60 68 64 56 50 46 44 42 40 39 36 35 34 34 33 33 33 33 33 30 28 27 28 29 29 27 25 22 19 17 15 13 13 14 17 21 25 29 36 43 50 55 56 50 40 32 32 44 67 90 101 101 99 100 101
100 105 105 102 102 105 102 90 77 70 65 63 60 58 60 62 64 71 75 76 73 70 65 60 57 57 58 55 51 53 62 67 63 57 53 50 48 45 41 39 37 37 37 37 37 36 36 36 37 34 32 32 32 34 35 35 32 28 24 21 18 15 14 13 14 16 21 23 25 28 34 40 46 50 47 38 30 29 39 59 83 100 103 100 99
103 104 102 101 104 107 102 89 78 72 67 64 62 60 61 62 62 66 71 73 73 71 67 62 59 58 58 56 53 57 65 68 65 61 57 54 53 49 43 41 40 41 42 42 41 41 38 37 37 36 35 35 36 38 42 43 40 35 30 26 21 18 17 17 16 18 26 35 36 33 33 35 37 41 45 40 32 29 32 38 53 77 97 102 100
104 103 102 104 105 102 93 82 75 71 67 64 63 62 63 62 61 62 64 66 69 70 68 66 63 61 61 57 54 60 69 70 67 65 62 59 57 53 48 47 46 45 47 48 46 43 39 36 35 35 35 35 36 39 44 48 47 42 36 30 25 22 20 19 18 18 28 50 62 57 51 51 47 43 42 40 33 31 37 38 37 47 71 93 102
104 102 100 100 97 92 85 78 73 70 67 64 62 63 65 64 62 63 63 63 65 66 66 65 63 64 64 59 55 63 73 74 69 67 66 64 63 60 56 54 53 51 51 53 53 48 42 39 37 37 38 36 37 40 45 49 51 48 43 37 31 27 24 21 21 19 26 52 80 86 78 78 78 68 57 49 42 39 43 45 40 37 43 62 86
98 96 94 90 87 84 80 78 75 72 68 64 61 61 63 63 63 65 66 65 67 67 66 64 63 65 66 62 59 66 75 76 72 69 68 67 67 68 65 62 61 60 58 59 62 57 49 44 40 41 44 44 45 49 50 50 52 52 50 46 40 33 27 24 25 24 25 44 80 102 100 97 101 97 84 72 63 57 53 49 45 41 36 41 65
92 90 86 83 81 79 77 76 75 73 70 66 62 61 61 60 61 64 65 66 69 70 69 67 66 68 67 63 65 74 79 77 73 70 69 70 71 73 72 69 68 68 67 68 69 64 55 50 45 44 47 50 53 57 56 55 59 60 58 55 49 39 32 27 27 29 30 38 69 99 106 102 104 106 101 93 81 70 63 56 51 48 43 42 60
85 82 78 76 74 72 72 71 71 71 71 68 65 64 63 60 60 61 63 65 69 73 74 73 73 73 68 63 69 82 86 80 75 72 72 75 78 79 77 76 77 77 76 76 78 76 69 62 55 52 52 53 56 60 62 65 68 68 64 62 56 45 37 31 30 35 38 40 61 92 105 102 101 104 105 103 95 83 75 69 63 58 53 50 60
76 74 72 70 68 68 69 70 71 72 72 70 68 67 65 61 59 60 62 65 70 76 81 83 82 78 69 64 72 87 91 83 78 79 81 84 86 84 81 82 84 85 83 83 85 87 85 79 72 65 61 60 61 63 65 68 72 73 71 67 60 49 41 36 35 42 47 47 59 86 103 102 101 103 104 105 104 98 91 86 82 78 71 65 67
68 69 70 68 67 68 68 69 71 72 73 73 72 70 69 65 61 60 61 64 69 77 85 91 89 80 69 65 74 87 92 87 83 86 90 92 90 86 83 84 87 88 88 87 88 92 94 94 90 82 72 65 62 65 69 71 72 75 74 70 62 53 46 43 44 51 56 54 60 82 101 103 101 102 103 103 103 103 100 98 97 95 92 89 87
64 65 66 65 65 66 65 66 68 69 72 74 75 75 75 71 66 64 64 63 64 72 83 93 92 80 67 65 74 87 93 90 86 89 94 95 93 90 87 87 88 89 88 89 91 94 96 96 95 92 87 78 68 63 66 69 70 72 72 69 63 55 50 52 56 60 61 58 62 81 99 103 101 101 102 102 102 101 100 100 100 100 100 100 99
61 62 62 61 61 60 58 57 56 56 58 61 65 73 79 79 74 70 70 69 65 65 74 86 88 79 68 65 72 85 95 94 88 89 93 94 94 94 94 92 90 89 90 93 96 98 98 97 96 95 96 94 85 73 66 62 62 63 65 64 60 56 58 67 73 72 67 62 68 87 101 103 102 101 101 101 101 101 101 100 100 100 99 99 100
58 58 57 54 52 48 46 47 49 49 49 47 49 57 70 81 82 77 75 77 75 68 67 76 81 76 68 66 72 82 94 97 93 89 90 93 97 98 96 95 94 93 95 100 102 101 100 99 99 99 99 100 98 93 85 76 67 64 64 62 58 60 73 87 91 87 79 75 83 96 103 102 101 100 100 101 101 100 100 100 99 100 100 99 100
53 52 49 44 42 46 55 66 72 69 60 48 39 38 48 69 87 88 80 78 80 76 69 71 77 74 65 64 74 85 92 96 96 92 90 93 99 99 96 96 98 98 100 103 102 100 100 100 99 100 100 100 100 100 99 96 89 83 79 71 66 73 89 100 101 99 94 91 96 102 101 100 101 100 100 100 100 100 100 100 100 100 100 100 100
48 44 40 38 46 64 82 92 92 84 67 46 32 26 26 41 72 97 96 84 81 81 74 69 74 76 66 59 71 88 96 95 95 94 92 92 97 99 98 99 100 99 99 100 99 100 103 103 100 100 100 100 100 100 100 101 100 97 94 88 84 90 99 101 101 103 102 101 102 102 101 100 101 100 100 100 100 100 100 100 100 100 100 100 100
44 39 36 42 64 87 98 96 94 89 71 44 26 23 21 20 40 79 105 99 86 83 79 70 70 75 69 58 64 84 99 99 94 93 92 92 98 102 100 98 99 100 99 99 99 101 103 102 100 100 100 99 100 100 99 100 100 100 101 100 99 100 102 101 100 101 102 102 102 102 101 101 101 101 101 100 100 100 100 100 100 100 100 100 100
42 36 36 52 79 97 99 95 95 94 79 49 24 20 24 19 21 49 90 108 101 92 85 73 68 72 70 59 60 79 97 102 97 93 91 94 101 103 98 95 98 101 101 100 99 99 100 100 100 100 100 100 100 100 100 100 100 100 100 102 103 102 101 100 100 100 101 101 100 100 100 100 100 100 100 100 100 100 100 100 100 100 100 100 100
41 35 39 60 86 97 95 95 97 98 89 63 31 18 21 22 17 31 68 100 110 107 99 84 71 69 68 60 59 74 92 101 100 94 92 98 102 100 97 99 102 102 99 99 100 100 99 100 100 100 100 100 100 100 100 100 100 100 100 100 102 102 101 100 100 101 101 100 100 100 100 100 100 100 100 100 100 100 100 100 100 100 100 100 100
42 36 41 64 88 97 95 96 98 101 99 80 46 22 19 21 17 23 51 84 101 104 104 95 82 73 67 60 60 71 85 95 100 99 97 99 100 99 100 103 103 100 99 100 100 100 100 99 100 100 100 100 100 100 100 100 100 100 100 100 100 100 100 100 100 100 100 100 100 100 100 100 100 101 100 100 100 101 101 101 100 100 100 100 100
45 38 43 66 92 102 101 101 100 100 103 96 68 36 22 21 19 20 39 70 90 95 95 94 89 81 71 59 59 71 83 90 97 102 102 100 98 100 104 106 102 99 100 100 99 100 100 100 100 100 100 100 100 100 100 100 100 100 100 100 100 99 99 100 100 100 100 100 100 100 100 100 100 100 100 100 100 100 101 100 100 100 100 100 100
50 42 45 65 93 107 106 105 103 99 101 104 92 63 35 26 26 29 39 61 80 88 90 90 88 85 77 62 56 67 80 86 93 101 104 101 99 100 104 105 102 100 100 100 100 100 100 99 100 100 100 100 100 100 99 100 100 100 99 99 100 100 100 100 100 100 100 100 100 100 100 100 100 100 100 101 100 100 101 101 101 101 101 101 101
56 47 46 59 85 106 109 106 104 101 100 103 104 92 66 43 35 39 50 64 75 81 84 86 86 86 81 68 57 62 75 83 89 98 103 100 98 101 104 105 102 100 100 100 100 100 100 100 100 100 100 100 99 100 100 100 99 100 100 100 100 100 100 99 100 100 100 100 100 100 100 100 100 100 100 100 100 100 101 102 103 103 104 104 105
63 53 48 54 73 97 110 109 106 104 102 100 101 103 95 76 57 47 49 61 73 78 79 81 83 85 85 74 59 57 70 82 87 93 101 102 99 101 103 104 103 102 100 100 100 99 100 100 100 99 100 100 100 99 100 100 100 100 100 100 99 100 100 100 100 100 100 100 100 100 100 100 100 100 100 100 100 100 101 102 103 104 104 104 105
72 60 52 53 64 85 105 112 110 108 107 103 98 98 101 98 88 72 58 52 57 67 75 80 80 81 83 80 66 55 63 78 86 90 98 103 103 102 102 102 103 102 100 99 100 100 99 99 100 100 100 100 100 100 100 100 100 100 99 100 100 100 99 100 100 100 100 100 100 100 100 100 100 100 100 100 100 100 101 101 101 102 102 102 102
79 71 60 55 61 76 95 107 110 109 109 107 103 99 98 99 99 97 87 71 58 53 58 68 77 80 81 81 71 58 58 70 82 90 97 102 103 102 101 100 100 100 100 100 99 100 100 100 100 100 100 100 100 100 100 99 100 100 100 100 100 100 100 100 100 100 100 100 100 100 100 100 100 100 100 100 100 100 100 101 101 101 101 100 100
82 80 71 63 62 71 85 99 107 109 109 110 109 106 104 101 99 99 100 95 84 70 56 52 59 71 80 82 75 62 55 62 76 87 96 102 103 101 100 100 100 99 100 100 100 99 100 100 99 99 100 100 99 99 100 100 100 100 100 100 100 100 100 100 99 100 100 100 100 100 100 100 100 100 100 100 100 100 100 100 100 100 100 100 100
84 85 82 74 69 70 78 90 100 106 108 109 109 109 109 109 105 101 99 99 97 93 81 65 53 53 63 76 80 69 55 55 68 84 94 100 103 101 99 100 101 100 99 100 100 100 99 100 100 100 99 100 100 100 100 100 100 99 100 100 100 99 100 100 100 100 100 100 100 100 100 100 100 100 100 100 100 100 100 100 100 100 100 100 100
86 89 89 85 79 76 78 85 94 101 104 104 103 104 106 108 108 105 102 99 97 95 94 89 76 59 50 57 71 75 63 51 56 75 92 99 101 101 101 100 99 100 100 99 100 100 100 99 100 100 100 100 100 100 99 100 100 100 100 100 100 100 100 100 100 100 100 100 100 100 100 100 100 99 100 100 100 100 100 100 100 100 100 100 101
88 92 95 94 89 85 85 87 91 97 101 101 100 100 101 104 106 105 103 101 98 95 92 93 92 84 67 53 53 64 68 59 51 61 83 99 102 100 101 101 99 99 100 100 99 100 100 100 99 100 100 100 99 100 100 100 100 100 100 100 100 100 100 99 100 100 100 100 100 100 100 100 100 100 100 100 100 100 100 100 100 101 101 101 100
92 95 99 101 98 94 92 92 93 96 100 102 102 100 99 99 102 104 103 100 97 95 93 90 90 92 88 74 58 52 58 61 55 52 67 91 103 101 98 101 101 99 99 100 100 99 100 100 100 100 100 100 100 100 100 100 100 100 100 100 99 100 100 100 100 100 100 100 100 100 100 100 100 100 100 100 101 102 102 102 102 102 101 99 96
98 100 104 106 105 101 98 96 96 99 101 103 105 106 106 104 103 103 103 101 96 93 92 91 88 88 90 90 80 64 53 53 54 51 56 76 98 104 100 98 101 100 99 100 100 100 99 100 100 100 99 100 100 100 100 100 100 100 100 100 100 100 100 100 100 100 100 100 100 100 100 101 101 102 103 104 104 105 104 102 101 100 97 94 90
105 107 109 109 108 105 101 99 98 98 99 101 103 103 104 104 103 100 99 98 95 92 89 88 89 87 85 87 91 85 69 55 49 47 49 62 85 101 103 99 99 101 101 99 100 100 100 100 100 100 100 100 100 100 100 100 100 100 100 100 100 100 100 100 100 100 100 100 100 101 102 102 103 104 105 105 104 103 101 99 98 96 91 86 80
109 109 110 109 107 104 101 98 97 96 95 96 96 96 94 93 93 92 90 89 87 87 86 84 84 86 86 84 86 91 89 75 57 45 41 49 68 91 103 102 99 99 101 100 100 100 100 100 100 100 100 100 100 100 100 100 100 100 100 100 100 100 100 100 100 100 100 101 101 101 100 101 103 106 107 105 103 101 99 96 92 86 80 75 71
108 107 107 106 104 101 99 96 95 93 91 88 85 82 80 77 75 73 73 73 71 72 74 75 75 78 82 83 82 84 91 92 80 59 42 37 50 74 95 103 101 99 100 100 100 100 100 100 100 100 100 100 100 100 100 100 100 100 100 100 100 100 100 100 100 101 100 100 100 100 102 104 107 107 105 102 98 95 90 86 82 78 77 76 75
Wind_Speed
57 57 57 58 58 59 59 60 60 61 61 62 64 65 66 68 71 74 78 81 84 88 93 97 101 104 105 105 104 103 101 100 100 100 100 101 101 100 100 100 101 101 100 100 100 100 100 100 99 99 100 100 99 97 94 91 89 90 91 91 91 91 90 90 90 87 87 88 87 84 82 79 75 72 74 77 77 77 76 73 69 66 65 64 64
56 56 56 56 57 58 58 59 60 60 60 61 62 62 63 64 66 68 71 74 77 80 83 87 92 97 102 105 107 108 107 106 105 103 103 102 103 103 103 103 102 102 101 101 101 101 101 100 100 99 99 99 98 97 95 93 91 90 90 91 91 91 91 91 91 89 88 88 87 86 85 85 83 77 75 78 78 77 77 76 74 71 68 67 67
56 55 55 55 56 57 57 58 59 60 60 60 61 61 62 62 64 64 66 67 70 73 76 79 82 86 91 97 102 106 109 110 110 109 108 107 106 106 106 105 105 104 103 103 103 102 102 102 101 101 100 99 98 98 98 96 94 92 91 91 91 91 91 91 91 90 90 90 88 85 83 84 85 83 80 78 76 75 75 75 77 75 71 70 69
55 55 54 55 56 56 57 57 58 59 59 59 60 60 60 61 61 61 62 63 65 67 69 72 75 78 81 85 90 95 101 106 110 112 112 112 111 110 109 109 108 107 106 105 105 105 104 104 103 103 102 102 100 99 99 99 97 96 94 92 92 91 91 91 91 91 91 91 90 86 83 82 83 85 85 82 77 74 73 73 76 77 75 72 71
55 55 54 55 55 56 56 57 57 58 58 59 59 58 58 58 58 58 59 60 61 63 65 66 68 71 73 77 80 84 88 93 99 105 110 113 115 115 114 113 112 111 110 109 108 108 107 106 106 106 105 104 103 102 101 101 100 99 98 96 94 93 92 91 92 92 92 93 92 89 86 83 83 84 86 86 82 77 74 74 74 75 76 76 74
55 56 56 55 55 55 56 56 57 57 57 58 57 56 56 55 55 56 57 59 59 61 62 63 64 66 67 70 73 75 79 82 86 91 97 104 110 114 116 117 116 116 115 114 113 112 111 109 108 108 108 107 106 105 104 103 103 102 100 99 97 96 95 93 92 93 93 93 93 92 89 86 85 86 86 87 87 84 81 80 79 78 77 80 81
55 56 56 56 56 55 56 56 56 56 56 56 56 55 55 54 54 54 56 57 58 59 60 60 61 62 64 65 67 69 71 74 77 81 84 89 95 102 108 112 115 117 118 119 119 118 117 115 113 111 110 110 109 108 107 106 105 104 103 102 100 98 97 96 95 94 94 94 94 94 91 88 87 88 88 88 89 89 87 85 84 83 81 83 85
54 55 56 57 56 56 56 56 56 56 56 55 55 55 54 54 54 54 55 56 57 57 58 59 59 60 61 62 63 65 67 68 71 74 77 81 84 88 93 99 104 108 112 115 118 120 121 121 119 117 115 113 112 111 110 109 108 106 105 104 103 101 100 98 97 96 95 95 94 94 93 90 89 89 90 90 90 89 87 84 82 80 81 84 84
55 56 56 56 56 56 56 55 55 55 55 55 55 55 55 55 55 55 55 55 56 56 56 57 57 57 58 60 61 63 64 66 68 70 72 75 78 81 84 87 91 95 99 103 107 111 115 118 120 121 120 119 117 115 114 113 111 110 107 106 105 104 102 101 100 99 98 96 95 94 94 93 91 90 91 91 89 87 86 85 83 80 81 84 85
55 56 56 56 56 56 56 55 55 55 55 55 55 55 55 55 55 54 54 54 55 55 55 56 56 57 57 58 59 61 62 64 66 68 69 71 73 76 78 80 83 85 88 91 94 98 102 107 112 116 119 121 121 119 118 116 115 114 112 110 108 106 105 104 102 101 100 99 97 96 95 95 94 92 91 89 88 88 89 87 86 86 87 86 86
56 56 56 55 55 56 55 55 54 55 55 55 54 54 54 54 54 54 53 53 54 54 55 55 56 56 57 57 58 59 60 62 64 66 67 68 69 71 73 75 77 79 81 83 86 88 91 95 100 105 110 115 118 120 120 119 118 117 116 114 113 111 109 107 105 103 102 101 101 99 97 96 94 94 92 90 88 89 90 88 87 89 90 88 88
57 57 56 55 54 54 54 54 54 54 54 54 54 53 53 52 52 52 52 52 53 53 54 54 55 55 56 56 57 58 59 60 62 63 64 65 66 68 69 71 72 73 75 77 79 81 84 88 91 95 99 105 110 115 118 120 120 120 119 118 117 115 113 111 109 106 104 103 103 102 101 99 96 94 94 92 90 90 90 89 90 91 90 89 90
57 56 56 55 54 53 53 53 53 53 53 53 53 52 52 51 51 51 51 51 51 52 52 53 53 54 55 55 56 57 57 58 59 60 60 61 63 65 67 68 69 70 70 72 74 77 79 82 85 88 91 95 101 106 111 115 118 120 121 120 119 118 116 115 113 111 108 106 104 103 103 101 99 96 94 92 92 91 91 91 92 93 92 92 91
57 56 55 54 53 53 52 52 52 52 52 52 52 51 51 50 50 49 49 49 49 50 51 51 52 52 53 53 54 54 55 56 56 56 57 58 60 63 66 66 67 68 69 71 73 75 77 79 82 83 85 88 92 97 102 107 112 116 119 121 121 120 119 118 117 115 112 110 107 105 103 102 101 100 96 94 93 92 91 90 91 92 92 91 92
56 55 54 53 53 52 52 51 51 50 50 50 51 50 50 49 49 48 48 47 48 48 49 49 50 50 51 51 52 52 52 53 53 54 55 57 59 62 64 65 67 68 69 70 72 74 76 78 80 81 83 84 87 90 94 99 104 109 114 118 120 121 121 120 119 118 116 114 111 108 104 102 101 101 100 98 97 95 92 90 88 89 89 88 88
55 54 53 52 52 52 51 51 50 49 49 49 49 49 49 49 48 48 47 46 46 47 48 48 48 49 49 49 49 49 49 50 51 52 53 56 58 61 63 64 65 66 67 69 70 72 74 76 78 79 80 82 83 85 88 93 97 102 107 111 115 117 119 119 119 119 118 117 116 113 108 104 102 101 101 100 99 98 97 94 91 89 89 88 87
54 53 52 51 51 51 51 50 50 49 48 48 48 48 48 48 48 48 47 46 46 47 47 48 48 48 48 48 48 47 47 48 49 50 52 54 57 59 60 62 63 64 65 66 68 70 71 73 75 77 78 79 80 81 83 87 92 97 101 104 108 111 114 116 116 117 118 118 118 116 113 110 106 103 102 101 101 101 101 100 97 94 91 90 89
52 51 51 51 50 50 50 50 49 48 48 47 47 47 47 47 47 48 48 47 47 48 48 48 48 48 47 47 47 47 46 47 48 48 50 53 55 56 57 58 59 60 61 64 66 67 69 71 73 75 76 77 78 78 79 82 86 91 95 100 103 106 108 110 110 111 113 115 116 117 116 114 111 108 105 102 101 102 103 102 101 99 97 96 93
50 50 50 50 50 50 50 49 48 47 47 47 47 46 46 47 47 48 48 48 48 48 48 48 47 47 47 47 46 46 45 45 47 47 49 51 53 54 54 55 55 56 58 60 62 64 66 67 70 72 73 74 75 76 76 78 81 85 90 95 99 101 103 104 105 106 107 109 111 112 113 113 112 111 108 105 103 102 103 103 103 102 101 100 99
49 49 49 49 49 49 49 49 47 47 47 46 46 46 46 46 46 47 48 49 49 48 48 48 47 46 46 46 45 45 44 44 45 46 47 48 49 50 50 51 51 52 53 55 57 59 61 63 65 67 69 71 72 73 74 75 77 81 85 90 94 97 98 100 102 103 103 104 105 106 107 108 108 109 108 107 104 103 103 103 103 103 103 102 100
48 48 48 48 48 48 48 47 46 46 46 46 45 45 45 45 45 46 46 47 47 48 47 47 46 45 45 45 45 44 44 43 44 44 45 45 46 47 47 47 48 49 49 50 51 53 55 57 59 62 64 66 68 70 72 73 75 77 80 84 88 91 94 97 100 100 100 101 102 102 102 102 103 105 105 105 104 104 103 102 102 102 103 103 101
47 47 47 47 47 47 47 46 46 46 46 45 44 44 44 44 44 44 45 45 45 45 45 46 45 44 44 44 44 43 43 42 42 43 43 43 43 44 44 44 45 46 45 45 45 47 48 50 52 55 58 60 62 65 68 71 73 74 75 77 80 85 89 93 96 98 98 100 100 100 100 99 99 100 102 102 103 103 102 101 101 100 100 100 101
47 46 46 46 46 46 46 45 45 45 45 44 44 43 43 43 43 43 43 43 42 42 43 43 43 42 42 42 42 42 42 42 42 41 41 41 41 42 42 42 42 43 42 41 41 42 44 46 47 49 51 53 55 59 64 67 69 69 70 71 73 78 83 88 92 95 97 98 98 98 97 96 95 95 96 97 98 99 99 98 98 97 96 95 96
46 45 46 46 45 45 45 45 45 45 44 44 43 43 43 42 42 42 42 41 40 40 40 41 41 41 40 40 40 41 41 41 41 40 39 39 39 39 40 40 40 39 39 38 38 39 40 42 44 45 46 48 50 54 58 61 62 64 65 65 68 72 77 82 87 92 94 95 96 95 94 93 91 90 89 90 90 92 92 93 93 92 92 91 90
46 45 45 45 46 45 45 45 44 44 44 44 43 42 42 42 41 41 41 40 39 38 38 39 40 40 39 38 38 40 41 40 40 39 38 37 37 37 38 38 38 37 36 36 35 35 36 37 39 40 42 44 46 49 52 54 57 59 60 61 63 66 70 75 82 87 90 92 92 91 90 89 87 85 84 83 84 84 85 86 86 87 87 87 86
45 45 45 45 46 45 45 45 45 45 45 44 44 43 42 42 41 40 40 39 38 37 37 38 39 39 38 36 36 38 39 39 38 38 37 36 36 36 36 36 36 35 34 33 32 32 32 33 34 35 37 39 42 44 47 50 52 55 56 57 58 61 64 68 75 81 84 87 87 87 86 86 84 82 80 79 78 78 79 79 79 80 81 81 81
45 45 45 46 46 46 46 45 45 45 45 45 45 44 43 43 41 40 40 38 37 36 36 36 37 38 36 35 35 36 38 38 37 36 36 35 34 34 33 33 33 33 32 31 29 28 29 29 30 31 33 35 38 41 43 46 48 50 51 52 53 54 57 62 69 74 78 80 81 81 82 82 81 79 77 76 75 74 74 73 73 74 74 75 75
46 46 46 47 47 47 47 47 47 47 47 46 46 45 44 44 42 41 40 39 37 35 34 34 35 36 35 34 33 35 36 36 35 35 35 34 33 32 31 31 31 31 30 28 26 25 25 26 27 27 28 30 33 36 39 42 43 44 46 47 48 50 53 58 63 68 72 74 75 76 77 77 77 76 75 74 73 72 71 71 71 71 71 71 72
47 48 48 49 49 49 49 49 49 48 47 48 47 47 46 45 44 42 41 40 38 36 34 32 33 34 34 33 32 33 34 34 34 33 33 32 31 30 29 29 29 29 27 26 24 22 22 22 23 23 24 25 27 30 33 36 37 38 40 42 44 47 50 54 58 62 66 68 70 71 72 72 72 72 71 71 72 71 70 70 71 71 70 70 71
48 49 50 51 50 49 48 46 46 45 46 46 47 47 47 47 45 43 41 40 39 37 34 32 31 32 33 32 32 32 32 32 33 32 31 30 29 28 28 27 27 26 24 23 21 20 19 19 20 20 20 21 22 24 27 28 30 31 34 38 41 45 49 52 53 57 60 63 65 66 67 68 68 68 68 68 69 70 70 70 70 71 71 71 70
49 50 50 50 48 45 42 41 41 42 44 45 45 46 46 46 46 45 42 39 38 38 36 32 29 30 31 31 31 31 31 30 30 31 30 28 27 27 26 25 24 23 22 21 20 19 18 17 17 17 17 18 19 20 22 24 25 28 31 35 39 44 49 50 50 52 56 59 61 62 63 64 65 65 65 65 65 67 68 69 69 69 70 71 71
50 50 49 46 42 39 38 38 40 41 43 44 45 45 44 44 44 44 43 40 38 37 36 33 29 28 30 30 29 29 30 29 29 29 28 27 26 25 24 23 23 22 21 20 18 17 16 15 15 15 15 16 17 18 20 22 24 27 30 34 38 44 49 50 49 49 52 55 58 59 61 62 63 63 63 63 63 64 65 67 67 67 68 68 69
50 48 45 41 38 37 37 38 39 41 43 43 44 43 43 41 41 41 41 40 38 36 35 33 29 26 28 30 29 27 28 29 28 27 27 25 24 23 22 22 21 20 19 18 17 15 14 14 14 14 14 14 16 17 19 22 24 26 29 33 38 43 48 50 49 49 50 53 56 58 59 61 62 62 62 61 61 61 62 63 64 64 64 65 65
48 46 42 38 35 36 37 37 38 40 42 42 42 41 40 39 38 38 37 37 37 36 35 34 29 25 26 29 29 26 26 27 27 26 25 24 23 22 21 20 19 17 17 17 15 14 14 13 13 13 12 13 14 16 18 21 24 26 30 33 37 41 45 49 50 50 49 51 53 55 57 59 60 61 61 60 59 59 59 60 60 61 61 62 62
47 44 40 36 35 35 36 36 37 39 40 41 40 39 37 35 35 35 35 34 34 34 34 34 31 26 24 26 28 27 25 26 26 25 23 22 22 21 20 18 17 16 15 15 14 13 13 13 12 11 11 11 13 15 17 20 23 26 29 33 35 38 41 45 48 50 49 49 49 51 52 54 57 59 60 60 59 59 59 59 59 60 61 61 62
45 43 39 36 34 35 35 36 37 37 38 39 38 37 34 32 31 31 32 32 32 31 32 32 32 28 24 24 26 27 26 25 25 24 22 22 22 20 18 17 16 15 14 14 13 12 12 12 11 10 10 10 12 14 16 19 22 26 29 32 34 36 37 39 42 45 47 48 48 48 49 50 52 54 56 58 59 59 60 60 60 60 61 61 62
44 41 38 36 35 35 35 35 36 36 36 37 36 34 32 29 27 27 29 30 30 30 29 30 31 29 26 23 24 26 26 24 23 23 22 21 21 19 17 16 16 15 14 13 12 11 11 11 11 10 10 10 11 13 15 18 21 25 28 31 33 35 36 36 37 39 41 44 45 46 47 47 48 49 51 53 55 56 58 59 60 61 61 61 62
43 41 38 35 34 34 34 35 35 35 35 35 34 32 30 27 25 24 25 27 28 28 28 28 29 29 27 24 23 24 26 24 23 21 21 21 20 19 16 15 15 15 14 12 11 11 11 11 11 10 10 10 11 12 14 16 20 23 27 30 33 35 36 36 36 37 37 38 39 41 42 43 44 45 46 47 48 50 51 53 54 56 57 57 58
43 41 39 36 35 34 34 34 34 34 33 33 32 31 29 26 24 23 23 25 26 27 27 27 27 27 27 25 23 23 25 24 22 21 21 21 20 18 16 15 14 14 13 12 11 11 10 10 10 11 11 11 12 13 14 15 18 22 25 28 31 33 35 36 37 37 37 36 37 37 38 39 40 41 42 43 44 45 45 46 47 48 49 50 51
42 41 39 37 35 34 34 34 33 33 32 31 31 29 28 26 24 23 23 24 26 26 26 26 27 27 26 25 24 23 24 24 23 21 20 20 19 18 17 16 14 14 13 13 12 11 10 10 10 11 11 12 13 14 15 16 17 20 23 26 29 31 33 35 36 37 37 37 37 37 37 38 39 39 40 41 41 42 43 43 44 45 46 46 47
41 40 39 38 36 35 34 34 33 33 32 31 30 29 27 26 24 23 23 24 25 26 26 25 25 26 25 25 24 23 24 24 24 22 20 19 19 18 17 16 15 14 14 13 12 11 11 11 11 11 12 13 14 15 16 17 18 19 21 24 26 29 31 33 34 35 36 36 37 37 37 38 38 39 39 40 40 41 42 42 43 43 44 44 45
41 40 39 37 36 35 35 34 34 33 32 31 30 29 28 27 25 24 23 23 23 24 25 25 25 25 25 24 24 23 24 24 24 22 20 20 19 18 18 17 16 15 14 14 13 13 12 12 12 12 12 13 14 15 16 18 19 20 21 22 24 26 27 30 32 33 34 35 36 36 37 37 38 38 39 39 40 40 40 40 41 41 41 42 43
40 40 38 37 36 36 35 35 34 34 33 32 31 30 29 28 27 26 24 23 22 22 23 25 25 25 25 24 24 24 24 24 24 23 22 20 19 19 18 18 17 16 16 15 15 14 14 13 13 13 13 14 15 16 17 18 19 20 22 23 24 25 26 27 28 30 31 32 33 34 34 35 36 36 36 37 37 37 37 37 38 38 39 40 40
40 39 39 38 37 36 36 35 35 34 34 33 32 31 30 29 28 27 26 25 24 23 22 22 24 25 25 25 24 25 25 24 24 24 23 22 20 20 20 19 18 17 17 17 16 16 15 15 14 14 15 15 16 16 17 18 19 20 21 22 23 24 25 26 26 27 28 29 29 30 31 31 32 32 33 33 34 34 35 35 36 37 37 38 38
40 39 39 38 37 37 36 36 35 35 35 34 33 32 31 30 30 29 28 27 27 25 23 22 22 23 24 25 25 25 25 25 25 25 24 23 22 21 21 20 19 19 18 18 18 17 17 16 16 16 16 16 17 17 18 19 19 20 21 21 22 23 24 25 25 26 26 27 28 28 29 30 30 31 31 32 32 33 33 34 34 35 35 36 36
40 40 39 39 38 38 37 37 36 36 35 35 34 34 33 32 32 31 30 29 28 28 27 25 23 22 22 24 25 26 26 26 26 25 25 25 24 23 23 22 21 20 20 20 19 19 19 18 18 17 17 17 18 18 18 19 20 20 21 21 22 22 23 24 24 25 26 26 27 28 28 29 29 29 30 30 31 31 32 32 33 33 34 34 35
41 40 40 39 39 39 38 38 37 37 36 36 36 35 35 34 34 33 32 31 30 29 29 28 27 25 23 22 23 25 27 28 27 26 26 27 26 26 25 24 23 22 21 21 21 21 20 20 20 19 19 19 19 19 19 19 20 20 20 21 21 21 22 23 23 24 24 25 26 26 27 27 28 28 29 29 30 31 31 32 33 33 34 35 36
41 41 40 40 40 39 39 39 38 38 38 37 37 37 36 36 36 35 34 33 33 32 31 30 29 28 26 24 23 24 26 28 29 28 27 27 28 28 27 26 25 24 23 22 22 22 22 22 22 21 21 21 21 21 21 21 21 21 21 21 21 21 22 22 23 23 24 24 25 25 26 27 27 28 29 30 31 31 32 33 34 34 35 36 38
41 41 41 41 40 40 39 39 39 39 39 39 39 39 38 38 38 37 36 36 35 34 33 33 32 31 30 28 26 24 25 27 29 30 29 28 29 31 30 29 28 27 25 24 24 24 24 24 24 24 24 23 23 23 22 22 22 22 23 23 23 22 22 23 23 23 23 24 25 25 26 27 28 29 30 31 31 32 33 34 35 36 37 38 40
41 41 41 41 41 41 40 40 40 40 40 40 40 41 41 41 41 40 40 39 38 37 36 35 35 34 33 31 30 28 26 26 28 30 31 30 30 32 33 32 31 30 28 27 26 26 25 25 25 25 25 25 25 25 24 24 24 24 24 24 24 23 23 23 23 23 23 24 25 26 26 27 28 29 30 31 32 33 35 36 37 38 39 40 41
41 42 42 42 41 41 41 41 42 42 42 43 43 43 44 44 44 44 43 43 42 41 40 39 38 37 36 35 33 31 29 28 27 29 31 32 32 33 34 35 34 33 31 30 29 28 28 27 27 26 26 26 26 26 26 26 25 25 25 24 24 23 23 23 23 23 24 24 25 26 27 28 29 30 31 33 34 35 36 37 38 39 40 40 41
Wind_Direction
295 293 290 288 286 285 283 282 281 280 279 277 275 272 270 268 265 263 261 260 259 258 257 255 254 252 251 249 249 248 248 247 246 246 245 245 246 246 246 246 247 247 246 246 246 245 245 246 246 246 246 247 248 248 248 248 247 246 245 244 243 242 242 242 243 241 240 239 238 237 238 240 243 247 251 253 253 254 254 252 250 249 249 248 247
297 295 293 290 288 287 285 284 283 282 281 280 279 277 275 273 271 267 265 263 261 260 259 258 256 255 253 252 251 250 249 249 248 247 247 246 245 245 245 245 246 246 246 247 247 247 246 246 246 246 246 246 247 247 247 247 246 245 244 244 244 243 242 242 242 241 240 241 241 240 238 239 240 242 246 251 254 254 254 253 252 249 248 247 246
299 297 295 293 290 288 286 285 284 283 282 282 281 280 279 277 275 272 269 267 265 263 261 259 258 257 256 255 253 252 251 250 250 249 249 248 247 246 246 246 245 246 246 246 246 247 247 247 247 247 246 246 246 246 247 247 246 245 244 244 243 243 243 243 242 241 240 241 242 241 240 239 238 239 242 246 250 253 254 254 254 251 248 246 245
300 298 296 294 292 290 288 287 285 285 284 283 282 281 280 278 277 275 273 270 268 266 264 262 260 259 258 257 256 255 253 252 252 251 250 250 249 248 247 246 246 246 246 246 246 246 246 246 247 247 247 246 246 246 246 246 246 246 245 244 243 243 242 242 242 241 241 241 242 242 241 240 238 237 238 241 245 249 251 252 254 254 251 248 245
301 299 297 294 293 291 290 289 287 287 285 284 283 282 281 279 277 276 274 273 271 270 268 266 264 262 260 259 258 257 256 254 254 253 252 251 251 250 250 249 248 247 246 246 246 246 246 246 246 246 247 247 246 246 246 245 246 246 246 245 244 243 242 241 241 240 240 241 241 242 242 240 239 237 236 237 240 243 245 247 250 253 254 253 249
302 300 297 295 294 292 291 290 288 287 286 285 284 283 282 281 279 278 276 275 273 272 270 269 267 265 263 262 260 259 258 257 256 255 254 253 252 252 251 251 250 250 248 247 247 247 247 247 246 246 246 246 246 246 246 245 245 245 245 245 245 244 243 242 241 240 240 240 241 241 241 240 239 238 236 235 236 238 241 243 246 248 252 254 253
301 299 297 296 294 292 291 290 289 288 287 286 285 285 284 283 281 280 278 276 274 273 272 271 269 268 267 265 264 262 260 259 258 257 256 255 254 253 252 252 252 252 251 250 249 249 248 248 247 247 247 246 246 245 245 245 245 244 244 244 245 245 244 243 242 241 240 240 240 240 240 239 238 238 238 237 236 236 238 241 245 247 250 252 253
301 298 297 295 294 292 291 290 289 288 288 287 287 286 286 285 283 281 279 277 276 275 273 272 271 270 269 268 266 265 263 261 260 259 258 257 255 254 253 253 252 252 252 252 251 251 250 249 248 248 247 247 246 246 245 245 244 244 243 243 243 244 244 244 243 242 241 240 240 240 240 238 237 237 238 239 239 238 238 239 242 244 246 248 250
300 298 297 295 294 292 291 290 290 289 288 288 288 287 286 285 284 283 281 279 277 276 275 274 272 271 270 269 267 266 265 263 262 261 260 259 258 256 255 254 253 252 252 251 251 251 251 250 249 248 248 248 247 247 246 245 245 244 243 243 243 243 243 243 243 243 242 241 240 240 240 239 238 237 237 239 240 241 238 236 237 239 241 245 248
300 298 297 295 294 292 291 291 290 289 288 288 287 287 286 286 284 283 282 280 279 277 276 275 274 273 271 270 268 267 266 265 264 263 262 261 260 258 256 255 254 252 252 251 250 250 250 250 249 249 248 248 247 247 247 246 246 245 244 243 243 243 242 242 242 242 243 242 240 240 240 240 239 238 238 238 239 239 238 236 236 238 240 242 244
299 298 296 295 294 292 292 291 290 289 288 288 287 286 286 285 284 284 282 281 279 278 277 277 276 275 273 272 270 269 268 267 266 265 264 262 261 259 257 255 254 253 252 251 250 249 249 248 248 248 248 247 247 246 246 246 246 246 245 244 244 243 243 242 242 242 242 242 241 240 240 240 240 240 240 239 238 238 238 237 236 237 238 238 239
299 297 296 295 293 292 291 291 290 289 288 288 287 286 286 285 284 284 282 281 280 279 278 278 277 276 275 274 272 271 270 269 268 266 265 263 261 260 258 256 255 255 255 254 253 252 251 250 248 248 248 247 246 246 246 246 246 246 245 245 244 244 243 243 242 241 241 241 241 241 240 240 239 240 241 240 240 239 238 237 235 235 237 237 238
298 297 296 295 294 292 291 290 289 289 289 288 288 287 287 286 285 284 282 281 280 280 279 279 278 277 276 275 274 273 272 270 269 267 264 263 261 261 260 259 258 257 257 257 257 256 255 253 251 249 248 247 247 246 245 245 245 245 245 245 244 244 244 243 243 242 241 241 241 240 240 240 239 239 240 241 241 240 240 238 237 236 238 238 239
298 297 296 295 294 293 292 291 290 290 289 289 288 288 287 286 285 284 282 281 281 280 280 279 278 278 277 276 275 274 273 271 268 267 265 264 263 263 262 262 261 261 260 260 259 259 257 256 254 251 249 247 247 246 245 244 244 244 244 244 244 244 243 243 243 243 242 241 241 240 240 240 240 239 238 239 239 240 240 241 240 240 240 240 240
298 297 297 296 295 294 293 292 291 290 289 289 288 288 287 286 285 284 283 282 282 281 280 280 279 279 279 278 277 274 272 270 268 267 267 266 266 266 266 266 265 264 263 262 261 260 259 257 256 253 251 248 247 246 245 244 243 242 242 243 243 243 243 243 243 243 242 242 242 241 240 239 240 239 238 238 238 238 238 239 240 241 241 241 241
299 298 297 296 295 294 293 292 291 290 290 289 288 287 286 286 285 284 283 282 282 281 281 281 281 281 281 280 279 275 271 269 268 268 268 269 269 270 270 270 269 268 266 264 263 261 260 258 257 255 253 250 248 246 245 244 243 242 241 241 241 241 241 241 242 242 242 242 242 242 241 240 240 240 239 238 238 238 237 236 236 238 239 240 240
299 298 297 296 295 294 293 292 291 291 291 290 288 287 286 285 284 283 282 281 281 281 282 282 282 282 282 282 281 277 273 271 270 270 271 272 272 273 273 272 271 270 268 266 264 262 261 259 258 256 254 252 249 247 245 244 243 242 240 239 239 239 239 239 239 240 241 241 242 242 242 241 241 240 239 239 238 237 237 236 235 235 237 238 239
300 299 298 296 295 294 293 292 292 291 291 291 289 287 286 284 283 282 281 280 280 280 281 282 282 282 282 283 282 279 275 273 274 274 275 276 276 275 274 273 272 271 270 268 266 264 262 260 259 257 254 253 251 248 246 244 243 242 241 239 238 237 236 237 237 237 238 239 240 240 241 241 241 241 241 240 239 238 237 237 236 236 236 237 237
301 299 298 297 296 294 293 292 292 292 291 291 290 288 286 284 283 281 280 280 279 280 280 281 282 282 282 283 283 280 276 275 276 277 278 279 279 277 276 276 275 274 272 270 268 266 264 262 260 257 255 253 251 249 247 245 243 242 241 240 238 236 235 234 234 234 234 235 236 237 238 239 240 241 241 240 240 239 238 237 236 236 236 236 237
302 300 299 297 296 295 294 293 293 292 292 291 290 289 287 285 284 282 281 280 279 279 280 280 281 282 282 283 283 281 278 277 279 280 281 281 280 279 279 279 279 278 276 274 271 269 266 264 261 258 256 253 251 249 247 246 244 242 241 240 239 237 235 233 232 231 231 231 233 233 234 236 237 238 239 239 239 240 239 238 236 236 236 236 237
302 301 299 298 296 295 294 294 293 293 292 292 291 290 289 287 286 284 283 282 280 279 279 280 281 282 282 282 283 282 279 279 280 282 283 283 282 282 283 283 283 282 280 278 276 272 269 266 263 260 256 253 250 249 247 246 244 242 241 240 238 237 235 233 231 230 229 229 230 231 231 232 233 234 235 236 237 238 238 238 237 236 236 236 236
303 301 300 298 297 296 295 295 294 293 293 292 292 291 290 289 288 287 285 284 283 281 280 280 280 282 282 282 283 282 280 280 282 283 284 284 284 284 285 286 286 285 284 283 280 276 272 268 264 261 257 253 250 248 247 245 244 243 241 240 238 236 235 233 231 229 228 228 229 230 230 230 231 231 232 233 234 235 236 236 236 236 236 237 237
303 302 300 298 297 296 296 295 295 294 294 293 292 291 290 289 289 288 287 286 285 283 282 281 281 281 281 282 283 283 281 281 283 284 284 285 285 286 287 288 287 288 287 285 281 277 273 269 265 261 257 253 249 247 245 245 244 243 242 240 238 236 234 232 230 228 227 227 229 230 230 229 230 230 231 231 232 233 234 235 235 235 236 236 236
304 302 301 300 298 298 297 297 296 295 294 293 292 291 290 290 289 289 288 288 287 285 283 282 282 282 281 282 284 283 282 282 284 285 286 287 287 288 289 289 289 289 289 287 284 280 276 272 268 263 258 253 249 246 245 244 244 243 241 239 237 235 233 231 229 228 226 226 228 229 230 229 230 230 230 231 231 232 233 233 234 234 235 235 235
304 303 302 301 300 299 299 298 297 296 295 294 292 291 290 290 289 289 289 289 288 286 284 282 282 282 282 282 283 283 282 283 284 286 287 288 289 289 289 290 290 290 289 289 287 284 279 275 270 265 259 254 250 247 245 243 242 241 240 238 236 234 231 229 228 227 225 225 227 228 229 229 229 230 230 230 231 231 232 233 233 233 234 234 233
305 304 302 301 300 300 299 298 297 296 295 294 293 292 290 289 289 289 289 289 288 286 284 283 283 282 282 282 282 282 282 283 285 287 288 289 289 289 289 290 290 290 290 290 289 285 281 277 272 266 259 253 248 245 244 242 240 239 238 237 235 233 230 227 226 225 224 224 225 227 228 228 228 228 228 228 229 230 231 232 233 233 234 234 234
305 304 302 301 300 299 298 297 296 295 294 293 292 292 290 289 289 289 289 289 288 286 284 283 283 282 282 282 282 281 281 283 285 286 288 288 288 289 290 291 290 289 290 290 289 286 282 278 273 267 261 254 248 244 243 241 239 238 237 235 232 229 226 224 223 223 222 223 224 225 226 227 227 227 227 226 226 228 229 230 231 232 233 233 234
306 305 303 302 301 300 298 297 295 294 293 292 291 290 290 289 288 288 289 289 288 286 284 282 282 282 281 282 282 281 282 283 285 286 287 288 288 290 291 291 289 289 289 290 289 288 284 279 274 269 263 256 250 245 243 241 239 237 235 233 229 224 220 219 219 220 220 220 221 222 224 225 226 226 226 224 224 225 226 227 229 230 231 231 232
306 306 304 303 302 300 299 297 295 294 292 290 289 288 287 286 286 286 287 288 288 287 284 282 282 282 282 282 281 280 281 283 285 286 287 288 289 291 291 290 289 289 290 290 290 289 286 282 276 270 264 258 252 247 244 242 239 235 232 228 223 218 213 213 215 216 217 218 218 219 221 222 224 225 224 223 223 223 224 225 226 227 228 228 229
307 306 305 304 303 301 300 299 298 297 295 293 290 287 285 284 283 283 283 284 285 286 284 282 281 281 281 282 281 280 280 282 284 286 287 288 289 290 291 291 291 291 291 290 289 288 286 283 279 274 268 261 254 247 243 240 235 230 225 222 216 211 207 208 210 213 214 214 215 216 218 219 220 221 222 221 221 222 223 224 224 225 225 226 226
309 308 306 305 304 303 302 302 303 303 301 298 294 288 283 281 280 280 280 280 281 283 283 281 280 280 280 280 279 279 280 281 284 285 286 287 288 290 292 293 292 291 290 288 287 286 285 282 279 276 271 264 257 248 240 233 226 220 217 215 210 206 203 203 205 209 211 211 212 213 215 216 217 218 218 219 220 221 222 223 224 225 225 226 226
310 309 308 306 304 303 303 305 306 307 306 303 299 293 285 279 275 275 277 277 277 279 280 280 279 280 280 278 277 278 279 280 282 284 285 286 288 291 293 292 290 289 288 287 287 287 285 282 279 275 271 264 256 246 236 226 219 213 211 209 206 203 200 199 201 204 207 208 209 210 211 213 214 215 216 217 218 219 221 222 224 225 226 227 227
312 311 309 305 302 302 304 306 308 310 311 309 305 298 291 282 273 269 271 275 276 277 278 277 277 278 280 278 276 275 276 279 281 283 284 286 288 290 290 289 289 290 290 289 288 287 283 279 275 272 268 262 253 242 231 222 215 209 206 204 203 202 200 199 199 202 204 206 207 209 210 211 212 213 214 215 217 218 220 221 223 224 226 227 228
313 312 309 304 301 302 305 307 310 313 315 314 311 304 296 287 276 267 264 268 274 277 277 277 276 276 278 278 276 274 274 276 279 281 283 285 285 286 288 290 291 290 289 288 286 283 278 273 268 266 263 257 249 239 228 219 212 206 202 200 200 201 201 200 201 202 204 206 208 210 211 212 213 213 214 215 217 218 220 221 222 223 225 226 228
314 313 308 303 301 303 305 308 311 314 318 319 316 311 303 292 280 269 262 262 267 273 276 277 277 276 276 276 275 273 272 273 276 280 282 283 282 283 287 289 288 286 284 282 281 278 273 268 262 259 256 250 243 235 226 218 210 204 199 197 197 199 201 202 203 205 206 207 208 210 212 214 215 215 216 217 218 219 221 222 223 225 226 228 229
315 313 308 303 302 304 307 309 311 314 318 321 321 317 310 299 286 273 264 262 264 268 272 274 276 276 276 274 273 273 271 271 274 278 280 280 279 281 285 286 284 281 280 278 277 274 270 264 257 250 246 241 236 230 224 217 210 203 198 195 195 196 198 201 205 207 208 209 209 210 212 214 216 217 218 219 221 222 224 225 226 228 229 231 232
315 313 308 303 302 304 306 308 309 312 316 321 323 322 316 307 294 279 268 264 266 268 270 271 273 275 275 273 271 270 269 269 271 274 277 277 277 278 280 280 279 278 276 275 274 269 265 259 251 242 234 229 226 225 221 216 210 204 200 196 194 194 195 197 201 205 208 210 211 212 213 214 216 218 220 222 224 225 227 229 230 232 234 235 237
315 313 309 303 301 302 304 306 308 310 313 318 323 324 321 313 302 288 276 269 269 271 272 271 271 273 274 273 269 267 266 266 267 269 272 272 273 274 274 273 273 273 271 269 267 262 257 253 247 237 227 220 217 217 216 213 209 205 202 198 195 194 193 194 197 199 203 206 209 211 213 215 217 219 221 223 225 227 229 230 232 234 236 237 239
314 313 309 304 300 300 302 304 306 308 310 313 318 322 322 317 307 295 285 278 275 275 274 272 271 271 272 272 270 266 264 264 263 264 266 268 269 269 268 267 266 266 265 262 258 253 248 246 242 234 223 215 210 208 208 208 206 204 202 200 197 195 193 193 194 196 199 202 205 207 210 213 215 218 221 223 225 227 229 231 232 234 235 236 238
313 312 309 305 301 299 299 301 303 305 307 308 310 314 318 318 312 302 291 284 281 279 276 274 271 270 270 270 269 266 263 261 260 260 261 264 266 265 263 261 259 259 258 255 251 246 240 236 233 228 221 214 208 203 201 200 199 200 200 199 197 195 194 193 194 195 197 199 202 205 208 211 213 216 219 221 224 226 228 229 231 233 234 236 237
312 311 309 306 302 299 298 299 300 302 303 304 304 306 310 313 313 309 300 292 285 281 279 276 272 270 269 268 268 265 261 259 258 256 257 259 260 260 258 256 252 250 250 249 245 240 234 228 223 220 217 212 207 203 198 195 193 193 195 196 196 195 194 193 193 195 196 199 201 204 207 209 212 215 217 220 222 224 227 229 231 233 235 236 238
311 311 309 306 303 299 297 296 297 297 298 300 301 302 302 304 306 308 306 301 293 286 281 277 274 271 268 266 265 263 260 257 255 253 252 253 255 254 253 251 246 242 241 242 239 235 229 223 217 213 210 207 205 202 199 195 192 190 189 191 192 193 193 193 194 195 197 199 201 204 207 209 212 215 218 220 223 225 227 230 232 234 235 237 239
310 310 309 307 303 299 296 295 294 294 295 296 297 298 299 299 299 300 301 302 300 295 287 280 275 271 268 265 263 261 258 255 253 250 247 247 249 249 248 246 242 237 234 234 233 230 226 221 215 209 206 204 202 200 198 196 194 192 190 189 190 191 192 193 194 196 198 200 202 204 207 210 213 216 218 221 223 226 228 230 232 233 235 237 239
309 309 308 306 304 300 297 295 293 292 292 292 293 294 294 294 294 294 294 295 296 296 293 287 279 272 267 264 261 259 257 254 251 247 244 242 242 243 243 241 239 234 230 228 227 225 222 218 214 209 205 202 199 198 197 195 194 193 192 191 191 191 192 193 194 196 198 200 203 205 207 210 213 215 217 220 222 224 226 228 230 232 234 235 237
308 308 307 306 304 302 299 296 293 291 290 290 290 289 289 289 289 289 289 289 289 289 290 289 285 277 269 263 259 256 255 253 249 245 242 239 236 236 237 237 235 231 227 224 223 221 219 216 212 209 205 202 199 197 196 195 193 192 192 192 192 193 193 194 196 197 199 201 203 205 208 210 212 214 216 218 220 222 224 227 229 231 232 234 236
307 307 307 306 304 302 300 297 295 292 290 289 288 287 286 285 285 284 284 284 284 283 283 283 283 281 275 266 259 254 252 251 248 244 239 236 233 231 232 233 232 228 224 222 220 218 216 213 210 207 204 201 199 197 196 195 194 193 193 194 194 194 196 197 198 200 201 203 205 207 209 211 212 214 216 218 219 221 223 225 228 230 232 235 237
306 306 306 305 304 302 300 298 296 293 291 289 287 286 284 283 282 281 280 280 280 279 279 278 277 277 276 271 263 255 250 248 246 243 238 234 231 228 227 228 228 226 222 219 218 216 213 210 208 205 203 201 199 198 197 196 196 195 196 196 197 198 199 201 202 203 204 206 208 209 210 212 213 215 216 218 220 222 224 227 229 232 235 238 241
306 306 305 304 303 302 300 298 296 294 292 290 288 286 284 282 280 279 277 277 276 276 275 275 273 271 271 270 266 259 251 246 244 242 237 233 229 227 225 224 224 224 222 218 216 214 212 210 207 205 202 201 200 198 198 197 197 198 198 199 200 201 203 204 205 207 208 209 211 212 213 214 216 217 219 222 224 226 229 232 235 239 242 245 248
305 305 304 304 303 301 299 298 296 294 292 290 289 287 285 283 281 279 276 275 273 272 272 271 270 268 266 264 263 260 255 247 243 240 236 232 228 226 224 222 222 221 220 218 216 214 211 210 208 206 204 203 201 200 199 200 200 200 201 202 203 204 205 206 208 210 211 213 214 216 217 219 221 223 225 228 231 234 237 240 243 247 250 252 254
305 305 304 304 302 301 299 298 296 294 293 291 289 288 286 284 282 280 278 275 273 271 269 267 266 265 263 261 258 257 255 250 244 239 235 232 228 225 223 221 221 220 219 217 216 215 212 211 210 209 207 205 204 202 202 203 203 204 205 206 207 208 209 210 211 213 215 217 219 221 223 226 228 231 233 236 239 242 246 249 251 254 256 257 258
306 305 305 304 303 301 300 298 297 295 294 292 290 288 287 285 283 281 279 276 274 271 268 265 263 261 259 258 255 253 251 249 245 240 235 231 228 225 222 220 219 219 218 217 216 215 214 212 211 211 210 209 207 206 206 206 207 207 208 209 210 211 212 213 215 217 220 222 225 227 230 233 236 239 241 244 247 250 253 255 256 258 259 260 261